Location: Shenandoah County Park
(38.9356°N, 78.4524°W)
Time: 13:45:46
(UTC-04:00)

CAS-4B - Pass Details

Date: 28 April 2024
Orbit: 476 x 492 km, 43.0° (Epoch: 20 May)

Event Time Altitude Azimuth Distance (km) Brightness Sun altitude
Exits shadow 03:09:40 15° 74° (ENE) 1,364 ? -30.0°
Drops below altitude 10° 03:10:28 10° 79° (E) 1,661 ? -29.9°
Sets 03:12:44 0° 86° (E) 2,545 ? -29.6°
